Vorticity
7 7 7 6 6 6 7 7 8 8 8 7 5 4 4 5 7 8 9 9 8 7 8 9 9 9 7 6 7 8 7 7 12 17 10 1 -1 -1 -0 1 3 8 9 7 5 4 4 4 5 3 5 5 2 4 -1 6 5 -3 2 8 28 22 -0 7 4 1 6 6 6 -2 2 7 8 7 -3 8 13 2 4 7 8 9 8 11 9 6 6 5
7 6 6 6 6 5 5 6 6 7 8 8 7 6 4 4 5 6 8 9 8 7 7 8 8 9 9 7 7 7 8 7 7 13 15 8 2 -1 -1 -1 -1 5 9 8 6 5 5 4 5 4 5 5 2 2 -2 2 5 7 13 15 29 23 3 10 5 -1 6 8 5 0 5 5 6 5 2 14 6 -4 5 8 11 9 6 12 9 4 7 5
6 6 6 6 6 6 6 5 6 6 7 7 8 8 7 5 3 4 5 7 8 8 7 8 8 9 9 9 8 7 7 8 7 8 13 13 7 3 -0 -1 -1 1 6 9 9 6 6 4 4 5 4 6 2 1 2 -2 4 9 8 21 34 20 6 7 3 1 5 8 5 3 5 4 7 6 6 10 -0 -0 7 7 10 6 5 12 9 5 5 6
7 6 7 7 7 7 7 7 6 6 7 7 7 9 9 8 5 3 3 4 6 7 7 8 8 8 8 9 8 7 7 7 8 7 9 13 11 8 3 1 0 -1 1 7 10 7 7 6 4 6 4 7 2 -3 5 3 3 0 4 34 35 12 9 6 4 4 3 5 5 6 5 5 10 8 7 4 -0 6 8 8 9 4 6 9 9 9 7 7
8 7 7 7 7 7 7 7 7 7 7 7 7 8 9 10 9 6 4 3 3 5 6 7 7 7 8 9 9 8 9 7 7 9 8 10 12 11 9 5 2 1 0 2 8 8 8 7 5 7 3 6 3 -5 2 6 4 -1 6 28 17 4 10 5 5 3 1 6 6 6 6 8 8 4 8 3 2 8 6 8 9 7 8 6 9 10 10 9
10 9 8 8 8 7 7 7 7 7 7 8 8 8 9 9 10 9 7 5 3 3 4 6 6 6 7 8 9 8 10 8 6 9 8 8 10 11 11 9 6 3 2 -0 3 7 9 9 6 7 4 4 5 -1 -2 2 4 2 6 12 4 3 7 6 6 1 2 5 4 6 6 7 7 4 9 7 5 8 6 7 8 9 8 6 9 8 9 8
11 10 10 9 9 9 9 8 7 6 5 7 8 8 9 9 9 10 11 8 5 4 2 4 5 5 6 7 8 8 9 9 7 8 8 8 8 9 10 10 10 6 4 2 0 5 8 9 7 6 6 5 6 4 -2 0 5 3 4 6 7 10 15 17 8 2 6 2 0 8 7 5 7 7 8 5 3 3 5 6 8 11 9 8 8 6 8 7
12 11 11 10 10 10 9 9 9 8 6 5 6 7 8 9 9 10 11 11 9 7 3 3 4 5 6 6 7 6 8 11 9 6 6 9 7 8 9 9 10 8 6 4 0 3 5 7 8 6 6 4 4 3 -1 -0 2 2 2 5 11 12 16 17 6 3 4 0 3 5 4 6 5 6 6 0 0 5 7 5 8 11 8 8 9 6 7 6
12 12 12 11 11 10 9 9 9 9 8 7 6 7 8 8 10 10 10 11 11 9 7 4 3 4 5 6 6 5 7 11 10 6 4 6 8 8 8 9 10 9 8 7 4 2 4 7 7 6 5 5 6 3 0 2 0 1 2 5 11 7 6 10 7 12 9 2 8 3 1 7 4 6 7 -0 1 9 8 4 7 10 8 8 9 7 6 6
12 13 13 13 13 12 11 10 10 9 9 8 8 7 8 8 9 10 10 11 12 11 10 7 5 4 5 7 6 5 8 10 9 8 5 4 6 7 8 8 9 10 9 8 7 3 4 6 4 5 5 6 9 5 0 5 3 0 1 2 9 5 6 11 6 20 26 7 3 4 2 7 6 4 5 3 6 11 7 3 5 8 9 7 7 8 6 6
12 12 12 13 13 14 13 12 12 11 10 10 9 8 8 8 9 10 10 11 11 11 11 10 8 5 4 6 6 5 7 10 10 8 7 5 4 6 8 9 8 10 10 9 8 4 3 4 3 5 6 5 8 7 1 4 4 2 3 -0 5 5 5 11 2 8 23 10 3 6 3 5 8 4 1 5 8 10 8 3 5 8 8 6 8 9 5 7
11 12 13 12 12 13 13 13 13 12 12 11 11 10 9 9 9 10 11 11 11 11 11 10 10 7 5 7 7 6 6 8 10 7 7 6 5 4 6 8 8 9 10 10 8 5 4 3 3 4 5 4 3 4 2 1 2 3 6 1 6 8 0 7 7 4 11 7 6 5 4 6 6 6 6 8 6 5 8 4 3 8 6 6 10 9 6 6
11 12 12 12 12 13 13 13 13 12 12 11 11 11 10 9 9 10 11 11 11 11 10 9 10 8 6 8 7 6 7 9 10 8 7 6 7 5 4 6 7 8 10 10 8 6 5 4 5 4 4 6 4 5 4 1 2 3 6 1 5 8 -2 1 9 6 -2 6 26 15 3 7 3 7 8 6 6 4 9 6 3 6 5 7 9 8 8 7
11 11 12 13 12 13 14 14 13 13 13 12 12 11 10 10 9 10 11 12 13 11 11 10 9 7 7 9 7 4 6 10 9 8 8 6 7 7 5 4 5 7 9 11 10 8 7 4 6 5 4 8 8 11 9 2 2 4 8 4 1 2 -2 1 7 7 -3 11 45 24 -1 7 3 6 7 2 8 7 7 7 6 6 4 7 8 8 9 6
11 12 12 13 14 15 15 14 14 14 14 13 13 12 12 11 10 10 10 12 14 13 12 10 10 7 7 9 8 4 6 11 9 5 7 6 7 8 7 5 4 6 7 9 11 9 8 6 6 5 5 7 7 9 9 4 2 3 7 7 7 4 -1 2 0 7 6 11 35 18 -1 8 2 7 9 2 8 5 4 7 8 6 4 6 6 8 8 6
12 13 13 13 14 14 14 15 14 14 14 14 14 14 13 12 12 10 10 11 13 15 13 11 10 7 8 11 9 5 6 13 12 6 6 6 6 8 8 7 4 4 5 7 10 10 10 8 8 6 5 7 6 6 6 5 4 4 5 3 5 4 -1 -0 -2 8 11 9 26 19 5 10 7 9 5 1 7 3 3 10 9 6 5 6 5 6 8 8
13 13 13 14 14 15 15 15 14 14 14 14 14 14 14 13 12 11 10 10 11 15 14 12 12 9 11 11 6 6 7 10 13 9 7 6 6 7 8 9 6 4 5 5 8 11 11 8 8 8 7 8 7 6 5 4 4 4 5 2 4 8 5 -2 -10 3 14 10 21 18 9 12 8 8 3 2 11 6 4 9 8 6 5 5 6 5 6 8
14 13 13 14 15 15 15 15 15 15 14 14 15 14 15 13 13 12 11 11 10 12 15 15 13 11 14 12 5 6 8 7 12 12 7 6 7 7 8 9 8 5 4 5 6 8 12 11 7 6 7 8 8 9 7 4 4 6 6 2 3 5 11 10 -7 -3 9 6 13 15 11 9 4 7 6 1 8 5 2 7 7 6 5 4 6 6 5 6
13 13 14 14 14 15 15 15 14 14 14 15 14 14 14 15 14 13 11 12 11 11 14 15 16 14 13 13 7 5 8 8 11 12 8 7 7 6 7 9 10 8 5 5 5 5 9 13 8 4 6 6 6 7 9 6 0 7 12 4 4 2 4 17 10 0 2 1 6 10 12 13 10 10 2 -5 2 3 1 5 7 7 7 4 4 7 5 5
13 13 13 14 15 15 14 14 14 14 14 13 15 15 14 16 15 13 13 13 12 12 13 14 15 16 13 13 11 7 8 8 11 13 10 8 7 6 7 8 9 11 7 4 5 6 6 11 12 8 6 7 6 3 8 9 -6 1 14 4 5 8 1 11 15 6 5 4 3 5 9 13 11 8 6 6 6 3 3 4 6 8 9 6 4 6 6 6
12 12 14 14 14 14 12 13 13 12 13 13 15 15 15 17 15 15 16 14 15 14 12 13 13 15 15 15 15 10 7 7 10 14 13 9 6 6 7 7 8 11 11 6 5 7 4 7 13 12 8 6 6 2 6 12 -2 -7 11 10 2 4 6 10 10 9 10 8 5 5 9 13 9 8 13 11 3 2 7 4 3 6 7 9 8 6 6 5
11 13 13 13 13 13 11 12 12 12 15 15 16 17 18 19 17 17 16 15 18 16 15 18 17 17 15 13 15 12 9 10 9 10 14 12 7 5 6 7 7 9 12 9 6 7 5 5 10 13 13 7 5 2 1 11 8 -3 7 16 -1 -7 14 19 4 6 12 8 9 4 7 14 6 7 16 9 0 2 5 4 4 4 4 9 10 8 7 4
12 13 11 12 12 11 11 11 13 15 16 17 19 20 20 20 20 19 17 15 16 17 17 19 20 19 16 15 17 11 9 13 12 10 13 14 10 5 6 7 5 8 13 11 7 7 5 5 9 12 14 10 6 4 0 2 6 2 3 15 8 -10 4 20 11 13 12 5 11 3 3 18 5 3 19 11 4 8 6 8 9 4 3 8 10 9 8 6
12 11 10 12 10 10 11 13 16 17 18 19 19 20 21 23 23 20 20 19 17 16 15 15 21 23 18 17 17 16 16 16 14 12 11 15 14 6 4 7 5 7 12 11 10 8 6 7 7 11 14 12 7 4 4 1 2 5 -3 2 18 4 -7 2 4 13 15 6 11 2 -3 18 13 8 25 18 11 14 9 9 7 0 4 7 7 7 8 8
10 9 11 10 10 12 12 15 17 17 19 19 19 21 21 21 24 23 21 20 18 20 18 15 19 20 16 12 11 12 15 18 19 14 11 13 14 9 5 6 5 8 10 11 12 9 7 9 7 8 13 14 12 6 3 2 0 6 3 -1 7 8 6 8 -2 2 14 10 14 11 -5 1 11 20 35 27 12 7 2 2 -2 -1 9 8 3 6 8 8
8 9 10 10 12 12 15 18 16 17 20 18 19 22 19 19 21 20 18 17 18 21 21 18 14 12 16 15 13 13 12 17 21 17 15 13 12 11 6 4 6 8 9 9 12 12 8 9 7 8 11 12 15 9 1 3 2 -2 5 8 2 4 15 22 15 9 13 16 20 20 4 -10 -5 20 39 27 10 4 -1 -2 -1 3 12 6 -1 3 7 9
7 9 11 11 12 13 17 16 16 20 19 17 19 19 19 18 17 18 18 16 18 21 20 21 18 12 16 16 15 21 18 14 16 16 17 14 13 14 7 4 5 6 10 8 8 12 11 12 10 6 10 11 13 13 4 3 5 -2 0 7 3 4 8 11 20 13 1 10 19 16 15 2 -12 8 32 23 14 13 3 2 11 11 5 2 1 2 5 8
7 10 11 11 12 15 16 16 20 20 15 16 16 15 18 15 16 24 21 12 14 18 15 19 24 15 12 16 15 20 17 14 17 17 17 14 12 15 11 7 3 2 9 8 8 11 10 12 12 7 11 14 16 19 12 3 3 -0 -3 7 9 0 -5 0 13 10 -8 -4 9 9 17 19 -0 -0 13 8 11 17 8 11 24 13 -2 0 4 1 3 6
8 11 11 11 13 15 16 18 21 17 12 14 13 17 19 16 19 17 9 9 13 15 8 9 23 22 15 19 22 20 14 16 23 17 15 15 11 12 13 12 8 3 5 6 7 12 11 12 16 10 6 13 22 19 11 6 9 9 0 4 18 14 2 1 5 7 0 -5 3 8 13 20 15 10 12 6 10 15 3 3 14 7 1 7 8 4 4 7
9 11 10 12 14 16 17 18 18 14 8 10 16 20 19 20 22 9 1 8 8 11 15 8 14 26 22 16 18 20 12 16 25 19 13 12 10 12 12 13 13 7 6 2 3 13 12 15 27 16 -5 2 18 16 10 7 7 19 15 -2 6 18 10 7 6 4 3 1 5 7 6 14 14 8 12 12 14 18 9 7 9 2 9 17 9 5 8 7
10 10 10 12 14 17 20 16 17 12 3 12 20 17 20 19 13 6 7 11 2 1 16 11 6 24 29 14 15 23 12 4 13 16 15 11 11 14 10 12 13 13 15 2 1 21 12 4 29 25 -2 0 10 7 8 6 -1 10 15 -2 -2 9 4 3 10 6 1 5 12 7 -4 3 7 -0 4 8 10 17 14 12 13 6 13 22 9 3 8 5
10 10 11 12 13 19 20 14 17 13 3 15 18 13 19 12 8 16 10 6 6 7 20 15 3 22 32 12 15 29 14 4 16 22 18 17 17 15 11 15 13 16 30 10 -4 24 14 -7 22 32 10 7 11 12 10 -2 -5 6 10 4 2 6 7 4 3 6 7 0 6 15 5 0 7 -0 -1 3 1 5 5 6 17 18 13 15 8 6 9 4
10 10 11 12 15 20 18 11 16 16 7 13 19 17 15 4 10 20 6 -3 2 17 40 24 1 22 33 13 17 28 11 3 24 33 21 18 26 19 10 20 20 12 24 18 1 19 17 -12 4 28 25 17 7 12 27 13 -2 3 6 7 4 -1 11 12 -5 0 17 5 -4 9 6 -3 6 4 -0 5 0 -3 0 -0 9 16 7 2 4 8 14 10
10 10 9 11 17 17 14 10 11 17 15 12 16 17 12 6 1 1 9 10 -8 -1 24 10 -0 25 30 16 12 12 9 -0 9 30 27 19 28 27 7 6 18 12 6 15 15 20 17 -9 -10 7 17 29 16 -2 15 23 13 9 0 -1 4 -2 9 23 9 1 9 4 -2 6 6 -1 3 3 -1 2 3 1 2 -1 5 17 13 4 3 5 8 8
9 11 8 10 17 15 12 9 8 18 19 10 13 9 -0 8 11 4 13 14 -2 4 12 0 14 30 14 5 1 -2 10 7 8 28 28 21 31 40 31 12 10 9 -2 6 16 12 11 9 15 12 -0 20 33 9 4 10 9 14 7 0 6 0 3 21 28 25 17 5 2 8 12 7 2 7 11 9 6 7 7 3 5 15 17 9 4 5 7 6
9 11 9 9 15 14 12 9 8 17 14 3 12 9 -8 5 19 7 -1 6 13 21 17 4 12 14 -5 -3 9 7 5 9 22 24 8 13 23 22 34 34 18 9 4 7 10 3 3 7 16 20 11 19 26 11 11 16 9 10 11 8 7 1 -1 -0 1 13 18 9 4 6 9 8 5 11 17 13 9 7 6 7 5 3 6 6 3 2 7 8
9 10 10 11 15 11 10 10 7 15 14 5 10 9 -1 6 12 -1 -2 11 10 6 17 16 3 2 4 5 12 12 11 20 21 6 -5 3 6 -3 5 22 22 13 10 9 1 -3 1 -2 0 11 16 25 23 3 1 13 16 16 12 6 3 1 0 -2 -4 5 9 3 2 5 4 2 3 3 -3 -3 10 10 3 7 11 5 1 2 5 1 1 5
9 12 10 10 15 11 10 13 8 11 14 10 11 7 5 12 13 12 10 2 -1 9 25 22 4 0 5 12 14 6 16 26 -2 -11 20 17 0 10 5 0 17 14 3 6 -1 -1 5 -4 3 16 9 13 26 12 -6 -7 3 12 6 -4 0 3 -2 -2 7 13 10 5 3 4 6 4 5 7 -0 -4 9 13 7 8 11 10 7 5 8 7 1 2
10 15 10 8 13 10 9 12 10 11 8 6 10 9 9 14 14 20 13 -8 2 24 16 7 17 9 -10 5 25 5 2 25 2 -10 28 20 -1 30 20 -9 15 17 3 19 15 7 15 2 2 15 7 11 22 19 14 4 -1 9 13 7 1 -1 -3 -2 4 8 6 6 7 7 9 6 -0 5 9 3 2 4 5 9 12 13 16 13 10 8 3 -0
10 13 9 9 11 8 7 8 10 14 11 7 10 8 9 14 10 11 10 -3 5 22 7 1 21 16 -9 -3 19 5 -9 19 23 -5 5 9 -1 29 24 -6 22 31 10 20 11 -1 14 14 14 19 14 21 18 13 28 23 6 10 20 22 7 -9 -3 1 -2 5 -0 -7 7 13 9 7 6 16 26 17 11 10 2 2 8 12 15 17 13 9 8 8
11 14 8 7 9 8 7 8 10 14 15 13 13 14 15 14 9 8 14 9 5 18 20 9 9 10 5 6 17 15 -9 0 20 3 7 17 -0 16 20 -8 16 34 9 1 -6 -7 9 7 12 21 22 38 30 11 23 24 14 11 4 21 30 11 11 11 6 15 1 -17 -1 12 11 12 6 10 19 14 12 19 15 11 10 3 2 11 14 9 8 11
10 13 8 5 7 8 7 10 13 12 14 13 9 16 19 11 10 12 18 15 2 12 25 14 9 15 19 20 20 12 -5 2 16 3 9 21 7 22 28 -4 9 28 10 -1 -12 -11 4 -2 4 16 20 44 45 24 19 8 4 3 -10 12 33 9 3 11 14 21 8 -9 -3 1 5 11 11 16 18 6 1 1 4 14 19 9 3 8 14 12 7 6
8 9 8 7 6 8 7 8 12 9 10 11 7 14 16 11 18 17 15 12 -5 4 23 14 10 12 11 21 16 -4 -3 19 17 -7 0 17 12 30 38 12 17 23 7 6 -5 -10 3 -2 -3 6 4 18 29 27 24 5 -4 -3 -8 10 16 -4 3 14 9 14 15 3 -4 -2 6 7 11 24 17 2 7 11 7 9 17 22 21 17 16 15 8 2
7 9 9 7 4 9 11 9 9 8 10 10 8 13 10 9 19 15 14 14 -4 -3 12 12 12 3 -5 16 17 -7 0 25 21 3 11 21 11 28 44 26 22 17 2 8 6 -2 4 -8 -17 -5 -0 6 15 23 29 19 8 3 -2 2 -0 -5 15 19 -1 4 24 14 -14 -9 14 11 5 16 17 11 14 19 14 3 -1 4 8 10 11 12 11 8
7 9 8 5 4 6 7 8 8 6 7 9 9 11 9 7 12 11 14 18 8 5 7 9 18 6 -1 17 10 -9 3 19 13 1 6 15 11 23 40 31 21 10 -1 9 7 -4 3 -3 -13 -8 -8 -9 -1 9 23 27 24 21 7 -5 -2 5 11 9 -6 -8 20 27 -3 -12 5 4 -2 6 14 11 -4 -9 2 10 10 4 -2 5 8 6 10 12
6 9 7 6 7 5 2 5 9 8 8 11 12 10 9 9 8 7 10 9 10 14 7 7 19 14 17 27 4 -12 8 19 14 5 -2 3 11 23 31 28 21 8 1 8 -1 -10 6 9 3 4 -4 -6 1 4 15 26 28 29 8 -16 3 24 9 0 -1 -10 5 20 6 6 13 2 -2 4 7 7 -1 -5 1 6 12 9 4 12 13 5 6 8
5 9 10 7 7 8 7 6 7 8 9 11 12 10 8 10 9 8 10 8 9 14 7 6 14 9 14 24 9 -1 9 10 13 20 11 4 9 21 30 30 21 6 4 10 -4 -13 -1 -1 -1 7 7 12 16 2 3 17 21 22 2 -22 2 28 9 -3 2 -1 7 4 -11 3 16 3 1 7 5 4 3 2 1 -3 -1 3 6 17 19 12 9 6
6 8 9 6 5 7 8 7 5 5 7 7 8 10 10 12 14 12 10 7 7 12 11 9 10 7 7 12 12 14 16 8 5 11 13 14 12 11 19 28 25 13 11 11 -3 -14 -12 -13 -14 -10 -7 5 11 4 7 18 25 26 5 -15 3 21 9 2 6 9 10 -2 -15 -4 4 -3 -1 2 2 4 1 -0 8 11 7 4 6 10 9 10 12 10
8 9 7 6 8 8 6 6 6 5 5 6 6 8 7 9 13 15 16 15 10 5 7 9 10 12 11 7 6 12 14 10 7 3 2 10 15 9 7 12 18 20 22 21 11 -5 -13 -6 -2 -8 -7 -1 -2 2 8 10 22 31 12 -7 -1 7 3 -1 6 15 11 -1 -3 -0 -2 -1 3 -1 -3 2 1 -2 5 17 20 14 9 4 1 5 10 10
7 8 7 6 7 9 7 5 6 5 5 6 6 6 7 7 7 8 11 21 22 13 5 5 7 10 12 10 9 12 11 9 13 12 4 3 9 11 10 13 16 18 19 22 28 20 5 8 15 8 7 5 -6 -4 4 4 16 29 19 7 3 5 7 1 1 11 12 6 4 -1 -5 -0 3 3 -0 -6 -9 -9 -7 4 18 21 17 11 7 11 15 14
7 6 7 8 7 9 8 5 5 6 7 9 8 7 8 8 8 7 5 10 19 22 19 14 7 6 9 10 10 11 12 11 15 17 11 7 7 6 9 18 20 17 14 11 19 26 19 14 15 9 11 17 12 10 12 10 14 18 17 18 17 15 14 5 -2 2 6 8 8 4 3 1 -3 -1 2 -3 -5 1 2 -0 2 10 19 19 12 9 11 15
8 6 7 9 8 8 8 6 6 7 7 9 9 8 8 6 6 8 7 6 8 13 21 26 21 13 6 5 8 9 8 10 15 13 11 13 15 12 11 14 14 14 17 14 10 15 19 17 16 10 5 7 11 15 15 7 5 10 13 17 23 28 26 14 2 -1 1 5 7 8 9 9 4 1 -0 -3 -5 -2 6 9 3 -3 -4 1 8 8 4 6
Height
5855 5855 5854 5854 5853 5853 5853 5853 5853 5852 5853 5853 5853 5853 5853 5853 5853 5853 5853 5854 5854 5855 5856 5857 5858 5860 5861 5862 5863 5864 5866 5867 5869 5870 5871 5873 5874 5875 5876 5878 5880 5881 5882 5883 5884 5885 5886 5887 5888 5889 5891 5891 5892 5893 5894 5893 5893 5893 5893 5892 5892 5893 5894 5895 5896 5898 5900 5901 5903 5904 5902 5903 5904 5904 5906 5906 5905 5906 5907 5908 5908 5909 5910 5911 5911 5912 5912 5912
5852 5852 5851 5851 5851 5850 5850 5850 5850 5850 5850 5850 5850 5850 5851 5851 5851 5851 5851 5851 5852 5853 5853 5854 5856 5857 5859 5860 5861 5862 5864 5865 5867 5868 5869 5871 5872 5873 5875 5877 5879 5879 5881 5881 5882 5883 5885 5886 5888 5889 5890 5892 5893 5893 5894 5893 5893 5893 5893 5892 5892 5893 5894 5895 5897 5898 5900 5901 5904 5904 5903 5904 5905 5905 5906 5906 5906 5907 5908 5909 5909 5910 5911 5912 5912 5913 5914 5913
5849 5849 5848 5848 5847 5847 5847 5847 5847 5847 5847 5847 5847 5848 5848 5848 5848 5849 5849 5849 5849 5850 5851 5852 5853 5855 5856 5857 5859 5860 5861 5863 5865 5866 5868 5869 5869 5871 5873 5875 5877 5878 5879 5880 5882 5883 5884 5886 5887 5889 5890 5892 5892 5892 5893 5894 5893 5893 5893 5892 5892 5893 5894 5894 5896 5898 5900 5902 5903 5904 5904 5905 5907 5906 5906 5906 5907 5909 5909 5909 5910 5911 5912 5913 5913 5914 5915 5915
5846 5845 5845 5844 5844 5844 5844 5844 5844 5843 5843 5843 5844 5844 5845 5845 5845 5846 5846 5847 5847 5848 5848 5849 5850 5852 5853 5855 5856 5858 5859 5861 5863 5864 5865 5866 5868 5870 5871 5874 5876 5877 5878 5880 5881 5882 5883 5885 5887 5888 5890 5892 5892 5891 5893 5893 5893 5893 5892 5892 5892 5894 5894 5895 5897 5898 5900 5903 5903 5903 5905 5906 5908 5909 5909 5908 5908 5909 5910 5910 5911 5912 5912 5913 5914 5915 5915 5916
5843 5842 5842 5841 5841 5840 5840 5840 5840 5840 5840 5840 5840 5841 5841 5842 5842 5842 5843 5844 5844 5845 5846 5847 5848 5849 5850 5852 5854 5855 5857 5859 5861 5862 5863 5864 5866 5868 5870 5872 5874 5876 5877 5879 5880 5881 5883 5884 5886 5887 5889 5891 5891 5892 5893 5893 5894 5893 5893 5893 5893 5894 5895 5895 5896 5898 5900 5903 5904 5903 5904 5907 5909 5910 5910 5909 5909 5910 5910 5911 5912 5912 5913 5913 5914 5916 5916 5917
5840 5839 5839 5838 5837 5837 5837 5837 5836 5836 5836 5836 5837 5837 5837 5838 5838 5839 5840 5840 5841 5842 5843 5844 5845 5846 5847 5849 5851 5853 5854 5857 5859 5859 5861 5862 5864 5865 5868 5870 5872 5874 5876 5878 5879 5880 5881 5883 5885 5886 5888 5889 5891 5892 5893 5893 5894 5894 5894 5894 5894 5894 5895 5895 5896 5897 5899 5902 5903 5904 5905 5907 5909 5910 5910 5909 5909 5911 5911 5912 5912 5913 5914 5914 5914 5915 5917 5918
5836 5836 5835 5834 5834 5833 5833 5833 5833 5832 5832 5833 5833 5833 5833 5834 5834 5835 5836 5837 5838 5839 5840 5841 5842 5843 5844 5846 5848 5850 5852 5854 5856 5857 5858 5860 5861 5863 5865 5868 5870 5872 5874 5876 5877 5879 5880 5882 5884 5885 5886 5888 5890 5891 5891 5892 5893 5894 5894 5895 5895 5895 5896 5896 5897 5898 5899 5900 5902 5904 5905 5907 5908 5909 5910 5910 5910 5911 5912 5913 5913 5914 5914 5915 5915 5916 5917 5918
5833 5832 5831 5831 5830 5830 5830 5829 5829 5828 5829 5829 5829 5829 5829 5830 5830 5831 5832 5833 5834 5835 5836 5837 5839 5840 5841 5843 5845 5847 5849 5852 5854 5854 5855 5858 5859 5861 5863 5865 5867 5869 5871 5873 5875 5877 5879 5880 5882 5883 5884 5887 5889 5890 5890 5891 5893 5893 5894 5895 5895 5895 5896 5897 5898 5899 5900 5900 5902 5905 5905 5905 5907 5908 5909 5910 5910 5911 5913 5913 5914 5915 5915 5916 5916 5916 5917 5918
5829 5828 5827 5827 5826 5826 5825 5825 5825 5824 5825 5825 5825 5825 5825 5825 5826 5827 5828 5829 5830 5831 5832 5833 5835 5837 5838 5840 5842 5843 5846 5849 5851 5851 5852 5855 5857 5858 5861 5862 5864 5866 5869 5871 5873 5875 5877 5879 5880 5881 5884 5887 5889 5890 5890 5891 5892 5892 5893 5895 5895 5895 5897 5897 5897 5898 5900 5901 5902 5905 5905 5905 5906 5908 5909 5910 5911 5912 5913 5914 5915 5915 5916 5916 5917 5918 5918 5919
5825 5824 5823 5823 5822 5822 5821 5821 5820 5820 5820 5821 5820 5820 5820 5821 5822 5823 5824 5825 5826 5827 5828 5829 5831 5833 5835 5837 5838 5840 5843 5846 5848 5848 5849 5852 5854 5856 5858 5860 5862 5864 5866 5869 5871 5873 5875 5877 5877 5880 5884 5887 5888 5889 5889 5890 5891 5892 5892 5894 5895 5895 5897 5897 5895 5896 5899 5900 5901 5904 5906 5906 5907 5908 5909 5910 5911 5913 5913 5914 5915 5916 5916 5917 5918 5918 5919 5919
5822 5820 5819 5819 5818 5817 5817 5816 5816 5815 5816 5816 5816 5816 5816 5816 5817 5818 5819 5820 5821 5823 5824 5825 5827 5829 5831 5833 5835 5837 5841 5843 5845 5845 5846 5849 5852 5853 5855 5858 5860 5861 5864 5867 5869 5871 5873 5874 5876 5879 5882 5884 5887 5888 5889 5890 5891 5892 5893 5894 5895 5895 5896 5895 5896 5897 5899 5900 5900 5903 5906 5907 5907 5908 5908 5909 5911 5913 5914 5914 5916 5917 5917 5918 5918 5919 5920 5920
5818 5817 5815 5814 5814 5813 5812 5812 5811 5811 5811 5811 5811 5811 5811 5811 5812 5814 5815 5816 5817 5818 5820 5821 5823 5825 5828 5829 5831 5834 5837 5840 5842 5841 5843 5846 5848 5851 5853 5855 5857 5859 5862 5864 5866 5869 5870 5872 5875 5878 5880 5883 5885 5886 5887 5889 5890 5891 5892 5894 5894 5894 5894 5896 5897 5898 5900 5901 5902 5903 5905 5908 5908 5908 5908 5909 5911 5913 5914 5915 5916 5917 5918 5918 5919 5920 5920 5921
5814 5812 5811 5810 5809 5808 5808 5807 5807 5807 5807 5806 5806 5806 5806 5807 5807 5809 5810 5811 5812 5814 5815 5817 5819 5821 5823 5825 5828 5831 5833 5836 5838 5838 5840 5843 5845 5848 5851 5853 5854 5857 5859 5861 5864 5866 5868 5871 5874 5876 5880 5883 5884 5885 5887 5888 5889 5890 5890 5893 5894 5893 5893 5895 5896 5897 5899 5900 5901 5902 5904 5907 5909 5908 5909 5909 5911 5912 5914 5915 5916 5917 5918 5919 5919 5920 5921 5922
5810 5808 5807 5805 5805 5804 5804 5803 5802 5802 5802 5801 5801 5801 5801 5802 5803 5803 5805 5806 5808 5809 5811 5812 5814 5817 5819 5821 5825 5828 5829 5833 5834 5834 5837 5840 5842 5845 5847 5850 5852 5854 5857 5859 5862 5864 5866 5869 5872 5876 5880 5883 5885 5887 5887 5887 5888 5889 5889 5891 5893 5892 5892 5894 5895 5897 5899 5898 5899 5901 5903 5906 5908 5909 5909 5910 5910 5911 5913 5915 5916 5917 5918 5919 5920 5921 5921 5922
5806 5804 5803 5801 5800 5800 5799 5799 5798 5798 5797 5797 5796 5796 5797 5797 5798 5799 5800 5801 5803 5804 5806 5808 5810 5812 5815 5817 5821 5823 5825 5829 5830 5830 5833 5836 5839 5841 5844 5847 5849 5851 5854 5857 5859 5862 5864 5867 5870 5875 5879 5881 5884 5885 5886 5887 5888 5888 5889 5890 5891 5892 5892 5894 5896 5897 5899 5899 5899 5900 5903 5905 5906 5908 5909 5909 5910 5911 5913 5914 5916 5917 5918 5919 5920 5921 5922 5922
5802 5800 5799 5798 5797 5796 5795 5795 5794 5793 5792 5792 5792 5792 5792 5793 5793 5794 5795 5796 5798 5799 5801 5803 5806 5809 5811 5814 5818 5819 5821 5825 5827 5828 5830 5833 5836 5838 5841 5844 5846 5848 5851 5854 5857 5860 5863 5866 5870 5874 5877 5879 5881 5882 5884 5886 5887 5888 5889 5890 5891 5892 5893 5894 5896 5898 5900 5900 5899 5901 5903 5904 5905 5908 5909 5908 5909 5911 5913 5914 5915 5917 5918 5919 5920 5921 5922 5923
5799 5797 5796 5794 5793 5792 5791 5791 5790 5789 5788 5788 5788 5788 5788 5788 5788 5789 5790 5791 5793 5795 5797 5799 5801 5804 5807 5810 5813 5814 5816 5820 5824 5825 5827 5830 5833 5835 5838 5841 5843 5846 5848 5851 5855 5858 5860 5864 5868 5872 5874 5877 5879 5881 5882 5885 5886 5888 5888 5889 5891 5892 5893 5894 5895 5898 5900 5900 5900 5901 5903 5903 5904 5906 5908 5908 5909 5910 5912 5914 5915 5917 5917 5919 5920 5921 5922 5923
5796 5794 5793 5791 5790 5789 5788 5787 5786 5785 5784 5784 5784 5784 5784 5784 5784 5785 5786 5787 5788 5790 5792 5795 5797 5799 5801 5805 5807 5808 5811 5815 5820 5822 5824 5827 5830 5832 5835 5838 5841 5843 5846 5849 5852 5855 5858 5862 5865 5868 5870 5874 5878 5880 5882 5884 5885 5886 5886 5888 5890 5891 5892 5894 5895 5897 5899 5899 5899 5901 5902 5902 5903 5905 5906 5908 5909 5910 5912 5914 5915 5916 5917 5918 5920 5921 5922 5924
5792 5791 5789 5788 5786 5785 5784 5783 5782 5781 5780 5780 5780 5779 5779 5779 5780 5781 5782 5783 5784 5786 5788 5791 5793 5794 5796 5800 5802 5804 5808 5812 5816 5818 5821 5824 5827 5830 5832 5835 5838 5841 5843 5846 5849 5852 5855 5859 5861 5863 5867 5871 5875 5879 5881 5882 5883 5885 5884 5886 5889 5890 5891 5893 5894 5896 5898 5898 5898 5900 5901 5903 5904 5905 5907 5909 5910 5911 5912 5914 5915 5916 5917 5918 5919 5921 5922 5924
5789 5787 5786 5784 5783 5782 5780 5779 5778 5777 5777 5776 5775 5775 5775 5775 5776 5777 5778 5779 5780 5781 5784 5786 5788 5789 5792 5795 5797 5800 5805 5809 5811 5814 5817 5820 5823 5827 5830 5832 5835 5838 5841 5844 5847 5849 5853 5856 5859 5862 5865 5870 5874 5877 5879 5879 5880 5882 5883 5885 5888 5889 5890 5891 5892 5894 5895 5896 5896 5897 5900 5903 5905 5906 5906 5908 5909 5910 5912 5913 5914 5916 5917 5918 5919 5921 5922 5924
5786 5784 5783 5781 5780 5778 5777 5775 5774 5773 5773 5772 5771 5771 5771 5771 5772 5773 5773 5774 5775 5777 5779 5781 5783 5785 5788 5791 5792 5796 5801 5804 5807 5811 5814 5817 5820 5824 5827 5829 5832 5836 5838 5841 5844 5846 5850 5854 5858 5862 5865 5868 5872 5875 5877 5878 5879 5880 5881 5883 5886 5888 5889 5889 5890 5891 5893 5894 5895 5896 5898 5902 5904 5904 5905 5907 5908 5910 5911 5912 5913 5915 5916 5918 5919 5920 5922 5924
5782 5781 5780 5778 5777 5775 5773 5772 5771 5770 5769 5768 5767 5767 5767 5767 5767 5768 5769 5770 5772 5774 5776 5778 5780 5782 5785 5786 5788 5793 5797 5801 5804 5807 5811 5814 5817 5821 5824 5826 5829 5833 5835 5838 5840 5843 5847 5852 5856 5860 5863 5866 5869 5872 5874 5877 5879 5879 5879 5881 5884 5887 5888 5888 5888 5890 5891 5893 5894 5895 5897 5900 5901 5902 5904 5906 5907 5908 5910 5911 5912 5914 5916 5918 5919 5920 5922 5923
5780 5778 5777 5775 5774 5772 5770 5769 5767 5766 5765 5764 5764 5763 5763 5763 5764 5764 5766 5767 5768 5770 5772 5775 5777 5779 5782 5783 5786 5790 5794 5798 5801 5804 5808 5811 5814 5818 5821 5823 5827 5830 5832 5835 5838 5841 5845 5850 5854 5857 5860 5863 5866 5870 5872 5874 5877 5877 5877 5879 5881 5885 5887 5886 5887 5888 5890 5892 5893 5894 5896 5898 5899 5900 5902 5904 5905 5907 5909 5910 5911 5914 5915 5917 5919 5921 5922 5923
5778 5776 5775 5773 5771 5769 5767 5766 5764 5763 5762 5761 5760 5760 5760 5760 5760 5761 5762 5764 5765 5767 5769 5772 5774 5777 5779 5781 5784 5787 5790 5794 5797 5801 5805 5808 5811 5815 5818 5821 5824 5827 5830 5833 5835 5839 5844 5849 5852 5855 5858 5860 5864 5868 5870 5872 5874 5875 5876 5878 5880 5883 5885 5885 5886 5888 5890 5892 5893 5894 5895 5897 5898 5898 5900 5902 5903 5905 5907 5909 5911 5912 5914 5916 5918 5920 5922 5923
5776 5774 5772 5771 5769 5767 5765 5763 5762 5760 5759 5758 5758 5757 5757 5757 5758 5758 5760 5761 5762 5765 5766 5769 5772 5774 5775 5777 5780 5784 5787 5791 5794 5798 5802 5804 5808 5812 5816 5819 5822 5825 5828 5831 5833 5836 5842 5846 5849 5852 5855 5858 5862 5866 5868 5869 5872 5875 5877 5878 5879 5881 5883 5884 5885 5887 5890 5892 5892 5892 5894 5896 5897 5898 5898 5900 5902 5904 5906 5908 5910 5911 5912 5915 5918 5919 5921 5923
5774 5772 5770 5769 5767 5765 5763 5761 5759 5758 5757 5757 5756 5756 5755 5756 5756 5756 5757 5758 5760 5762 5764 5767 5769 5770 5773 5774 5776 5781 5785 5787 5791 5796 5799 5801 5805 5809 5812 5816 5820 5823 5825 5828 5831 5834 5839 5844 5846 5849 5852 5856 5860 5862 5864 5866 5870 5874 5877 5877 5879 5880 5882 5883 5884 5886 5889 5891 5891 5891 5893 5894 5896 5897 5898 5899 5900 5902 5904 5907 5909 5911 5912 5915 5917 5918 5921 5923
5772 5770 5769 5767 5765 5763 5761 5759 5758 5757 5756 5755 5755 5754 5754 5754 5755 5755 5756 5757 5759 5760 5763 5765 5767 5769 5771 5771 5775 5781 5783 5784 5788 5794 5797 5799 5802 5806 5809 5812 5816 5820 5823 5825 5828 5832 5837 5841 5844 5847 5850 5853 5856 5859 5862 5865 5869 5873 5875 5876 5878 5879 5881 5883 5883 5885 5887 5889 5890 5891 5892 5893 5895 5896 5897 5898 5899 5901 5903 5905 5908 5910 5912 5914 5916 5918 5920 5922
5771 5769 5767 5766 5764 5762 5760 5758 5757 5756 5755 5754 5754 5753 5753 5753 5754 5755 5756 5757 5759 5760 5763 5765 5766 5769 5769 5769 5774 5779 5780 5782 5786 5791 5794 5797 5800 5804 5807 5810 5813 5816 5819 5822 5826 5830 5835 5838 5841 5845 5848 5851 5855 5859 5862 5863 5866 5870 5872 5875 5877 5877 5879 5881 5882 5883 5885 5887 5889 5890 5891 5893 5894 5896 5897 5898 5900 5901 5903 5905 5907 5910 5912 5914 5915 5917 5919 5921
5769 5768 5766 5764 5762 5760 5758 5757 5756 5755 5754 5754 5753 5753 5753 5754 5754 5755 5757 5759 5760 5761 5764 5765 5766 5768 5769 5771 5775 5777 5778 5782 5783 5786 5790 5793 5797 5802 5805 5808 5811 5814 5817 5820 5823 5827 5832 5837 5840 5843 5846 5849 5852 5855 5857 5860 5864 5868 5871 5874 5876 5876 5877 5879 5880 5882 5883 5885 5887 5889 5891 5893 5894 5895 5897 5898 5900 5901 5903 5905 5907 5909 5912 5913 5914 5916 5919 5921
5769 5767 5765 5763 5761 5759 5757 5756 5755 5755 5754 5754 5753 5753 5754 5754 5756 5756 5758 5759 5760 5761 5764 5765 5766 5767 5769 5772 5774 5775 5778 5780 5780 5782 5787 5790 5794 5799 5802 5806 5811 5815 5817 5818 5821 5825 5830 5835 5838 5840 5842 5844 5847 5850 5854 5857 5861 5867 5870 5872 5874 5875 5877 5877 5877 5879 5880 5882 5886 5889 5890 5891 5894 5895 5896 5898 5899 5900 5902 5904 5906 5909 5911 5913 5914 5916 5918 5919
5768 5766 5764 5763 5760 5758 5757 5756 5755 5755 5754 5754 5754 5754 5755 5756 5757 5758 5759 5760 5761 5762 5763 5765 5766 5767 5769 5771 5773 5775 5777 5778 5779 5782 5786 5789 5792 5796 5800 5805 5810 5814 5815 5816 5819 5824 5829 5832 5835 5837 5839 5840 5843 5849 5853 5855 5858 5863 5866 5869 5872 5874 5875 5876 5876 5876 5878 5881 5884 5887 5889 5890 5892 5894 5895 5896 5898 5899 5901 5904 5906 5907 5909 5912 5914 5916 5917 5918
5767 5766 5764 5762 5760 5758 5757 5756 5755 5755 5755 5755 5755 5755 5757 5757 5758 5759 5760 5761 5763 5764 5764 5765 5766 5767 5769 5771 5773 5776 5777 5778 5780 5783 5787 5790 5793 5796 5800 5803 5807 5812 5814 5816 5819 5823 5826 5829 5831 5833 5836 5839 5842 5847 5851 5852 5856 5860 5863 5867 5870 5871 5872 5874 5875 5876 5878 5882 5884 5885 5886 5888 5890 5891 5893 5895 5897 5898 5901 5903 5905 5906 5908 5911 5913 5914 5914 5915
5767 5765 5764 5762 5760 5758 5756 5756 5756 5756 5756 5755 5756 5756 5757 5758 5759 5760 5761 5762 5764 5765 5764 5765 5767 5768 5769 5771 5774 5776 5777 5779 5781 5784 5787 5790 5793 5797 5801 5803 5806 5811 5813 5815 5819 5822 5824 5826 5827 5829 5833 5836 5839 5843 5847 5849 5854 5858 5861 5865 5867 5868 5869 5871 5874 5876 5878 5882 5883 5882 5884 5886 5888 5891 5892 5894 5896 5897 5900 5902 5904 5906 5908 5909 5911 5913 5913 5914
5766 5765 5764 5762 5760 5758 5757 5756 5756 5757 5757 5756 5757 5758 5759 5759 5759 5760 5761 5763 5765 5767 5767 5768 5769 5770 5770 5772 5775 5777 5779 5781 5782 5785 5787 5789 5792 5796 5798 5801 5806 5809 5811 5814 5817 5820 5823 5824 5824 5827 5830 5833 5837 5841 5843 5847 5853 5857 5858 5862 5864 5865 5868 5872 5874 5876 5879 5882 5882 5881 5882 5883 5886 5890 5891 5893 5895 5896 5898 5901 5903 5905 5907 5909 5910 5912 5913 5914
5766 5765 5764 5762 5760 5758 5757 5757 5757 5758 5758 5757 5758 5758 5759 5760 5760 5760 5762 5764 5765 5768 5770 5770 5771 5771 5772 5773 5776 5779 5781 5781 5782 5785 5787 5789 5792 5796 5798 5801 5803 5806 5809 5811 5814 5817 5820 5822 5824 5826 5828 5831 5837 5839 5840 5844 5850 5854 5856 5860 5863 5865 5869 5872 5875 5877 5880 5882 5880 5879 5880 5881 5884 5887 5888 5890 5892 5894 5895 5898 5902 5904 5906 5907 5908 5909 5910 5911
5766 5765 5764 5762 5761 5759 5757 5757 5758 5758 5759 5759 5759 5759 5759 5760 5761 5761 5763 5764 5765 5767 5769 5771 5772 5772 5773 5774 5776 5779 5781 5781 5781 5784 5787 5789 5792 5795 5798 5800 5801 5803 5805 5807 5810 5814 5817 5820 5823 5825 5826 5831 5835 5837 5839 5842 5846 5850 5855 5858 5861 5865 5868 5871 5873 5876 5879 5880 5878 5876 5877 5879 5882 5885 5886 5887 5889 5892 5893 5896 5900 5902 5904 5905 5906 5907 5909 5909
5766 5765 5763 5763 5762 5760 5758 5759 5759 5759 5759 5759 5760 5760 5760 5760 5761 5761 5763 5764 5765 5766 5767 5769 5772 5773 5774 5775 5776 5777 5780 5781 5782 5784 5787 5789 5792 5793 5793 5794 5796 5799 5802 5806 5810 5812 5813 5817 5821 5822 5825 5831 5833 5834 5837 5841 5844 5847 5851 5854 5857 5862 5865 5867 5869 5873 5876 5877 5876 5875 5875 5878 5882 5884 5885 5886 5889 5891 5893 5895 5898 5900 5903 5905 5906 5908 5909 5909
5766 5765 5764 5764 5763 5761 5759 5760 5759 5759 5759 5759 5759 5759 5760 5761 5761 5761 5762 5763 5765 5765 5765 5767 5769 5770 5771 5772 5773 5776 5779 5781 5782 5783 5785 5787 5789 5789 5787 5789 5791 5794 5800 5806 5810 5810 5812 5816 5818 5819 5823 5828 5830 5831 5834 5838 5841 5843 5845 5850 5856 5859 5862 5863 5865 5869 5873 5873 5872 5872 5873 5875 5878 5880 5882 5885 5888 5890 5892 5894 5897 5898 5902 5904 5905 5907 5908 5907
5766 5765 5764 5764 5762 5761 5760 5760 5760 5760 5760 5759 5759 5759 5760 5760 5761 5762 5763 5763 5763 5764 5765 5766 5767 5767 5768 5769 5771 5773 5776 5779 5780 5781 5783 5783 5783 5784 5787 5790 5793 5796 5801 5807 5809 5810 5811 5813 5814 5816 5820 5824 5826 5829 5834 5838 5840 5841 5844 5849 5853 5857 5859 5862 5863 5866 5869 5869 5869 5870 5870 5872 5874 5876 5878 5880 5883 5887 5889 5892 5895 5897 5899 5901 5902 5904 5906 5905
5765 5764 5764 5763 5762 5761 5761 5760 5760 5760 5760 5759 5759 5759 5759 5760 5760 5761 5762 5763 5763 5763 5764 5765 5766 5767 5768 5768 5770 5771 5772 5776 5778 5777 5779 5780 5779 5781 5786 5790 5793 5799 5803 5805 5806 5807 5808 5810 5811 5814 5817 5820 5823 5828 5833 5837 5839 5842 5845 5848 5853 5857 5858 5860 5862 5865 5867 5867 5867 5868 5869 5871 5873 5875 5876 5876 5879 5883 5887 5890 5893 5895 5897 5898 5900 5903 5904 5905
5765 5764 5764 5763 5762 5761 5761 5761 5760 5759 5759 5759 5759 5759 5759 5759 5760 5760 5761 5762 5763 5763 5763 5763 5764 5766 5767 5768 5769 5769 5770 5772 5773 5773 5775 5778 5779 5781 5785 5788 5792 5797 5799 5800 5802 5803 5804 5806 5810 5813 5815 5818 5823 5827 5833 5837 5838 5840 5844 5848 5853 5857 5858 5860 5862 5864 5864 5864 5863 5865 5868 5869 5870 5873 5874 5875 5877 5881 5885 5888 5891 5892 5894 5895 5898 5901 5904 5906
5764 5764 5763 5763 5762 5761 5761 5761 5760 5760 5759 5759 5759 5759 5759 5759 5759 5760 5761 5762 5761 5761 5762 5763 5764 5765 5766 5767 5769 5769 5768 5769 5771 5773 5775 5777 5780 5782 5785 5788 5791 5794 5796 5799 5802 5803 5803 5805 5808 5811 5814 5817 5820 5825 5830 5833 5835 5837 5841 5846 5851 5855 5855 5856 5858 5859 5859 5859 5860 5863 5865 5866 5867 5869 5871 5873 5875 5878 5883 5886 5888 5889 5890 5892 5895 5898 5901 5903
5763 5763 5763 5762 5762 5762 5761 5761 5760 5760 5760 5759 5759 5759 5759 5759 5759 5760 5761 5761 5761 5761 5762 5763 5764 5765 5765 5766 5767 5767 5767 5769 5772 5774 5775 5777 5779 5780 5783 5786 5790 5793 5796 5799 5802 5803 5802 5804 5807 5810 5812 5815 5818 5823 5827 5828 5831 5836 5842 5846 5848 5849 5849 5850 5853 5854 5855 5856 5858 5860 5861 5863 5865 5867 5869 5871 5872 5875 5879 5883 5886 5888 5888 5889 5891 5894 5897 5900
5763 5763 5763 5762 5761 5761 5761 5761 5760 5760 5760 5760 5760 5759 5760 5759 5759 5760 5760 5761 5761 5761 5761 5762 5764 5765 5765 5766 5766 5766 5767 5769 5771 5773 5774 5776 5778 5779 5781 5785 5788 5790 5793 5796 5799 5801 5801 5803 5806 5808 5811 5813 5816 5821 5824 5826 5830 5835 5839 5843 5843 5842 5844 5849 5851 5850 5850 5853 5855 5856 5858 5860 5862 5864 5866 5868 5869 5870 5875 5880 5884 5886 5886 5887 5888 5891 5893 5895
5762 5762 5762 5762 5761 5761 5761 5761 5760 5760 5760 5760 5760 5760 5760 5760 5760 5760 5760 5761 5761 5762 5762 5763 5763 5764 5765 5765 5766 5767 5768 5769 5770 5772 5774 5775 5777 5778 5779 5783 5785 5787 5790 5794 5796 5799 5800 5803 5804 5805 5807 5810 5814 5818 5821 5825 5829 5833 5836 5840 5840 5839 5842 5846 5847 5846 5846 5849 5851 5852 5855 5857 5859 5861 5863 5865 5865 5866 5872 5878 5882 5884 5884 5884 5886 5888 5890 5892
5761 5761 5761 5761 5761 5761 5761 5761 5761 5761 5761 5761 5760 5760 5760 5760 5760 5760 5760 5761 5761 5762 5762 5763 5763 5764 5764 5765 5765 5766 5767 5769 5770 5771 5773 5775 5777 5778 5779 5781 5783 5785 5788 5791 5794 5797 5799 5802 5804 5805 5807 5809 5812 5814 5817 5821 5825 5829 5833 5836 5835 5835 5839 5843 5844 5842 5842 5844 5847 5848 5851 5854 5856 5857 5860 5862 5862 5863 5869 5874 5878 5880 5881 5881 5883 5885 5887 5889
5761 5761 5761 5761 5761 5761 5761 5761 5761 5761 5761 5761 5761 5760 5760 5760 5760 5760 5760 5760 5761 5761 5762 5762 5763 5763 5763 5764 5764 5765 5766 5768 5769 5770 5772 5774 5776 5778 5779 5781 5783 5785 5786 5789 5792 5794 5797 5800 5802 5804 5807 5809 5810 5811 5814 5818 5821 5824 5828 5830 5829 5831 5837 5842 5841 5839 5840 5843 5844 5845 5848 5851 5853 5854 5857 5859 5860 5862 5866 5870 5873 5877 5880 5880 5881 5883 5885 5887
5760 5760 5760 5760 5760 5760 5760 5760 5760 5760 5760 5761 5761 5761 5760 5760 5760 5760 5760 5760 5760 5760 5761 5762 5762 5762 5763 5763 5764 5765 5765 5766 5767 5769 5771 5772 5774 5776 5778 5780 5782 5784 5785 5788 5791 5793 5795 5797 5798 5801 5804 5807 5809 5811 5813 5816 5818 5821 5825 5826 5825 5828 5834 5839 5839 5837 5839 5841 5842 5843 5846 5848 5849 5851 5854 5856 5858 5861 5864 5866 5869 5874 5878 5879 5880 5881 5883 5885
5759 5760 5760 5760 5760 5760 5760 5760 5760 5760 5760 5761 5761 5761 5760 5760 5760 5760 5760 5760 5760 5760 5760 5761 5761 5762 5762 5763 5764 5765 5766 5766 5767 5769 5770 5771 5773 5774 5776 5778 5781 5783 5785 5788 5790 5792 5794 5794 5795 5799 5802 5804 5807 5810 5811 5813 5816 5820 5822 5821 5822 5826 5832 5837 5837 5835 5837 5839 5840 5842 5844 5845 5847 5849 5851 5855 5857 5860 5862 5864 5866 5870 5875 5878 5878 5879 5881 5883
5758 5758 5759 5759 5760 5760 5760 5760 5760 5760 5760 5760 5760 5761 5760 5760 5760 5760 5760 5759 5759 5759 5759 5760 5761 5761 5761 5762 5764 5765 5766 5766 5767 5769 5770 5770 5772 5773 5775 5777 5780 5782 5784 5786 5787 5789 5792 5792 5794 5798 5801 5802 5804 5807 5809 5811 5814 5816 5817 5819 5822 5827 5831 5834 5832 5830 5834 5838 5839 5840 5841 5843 5845 5846 5849 5853 5856 5858 5860 5862 5864 5867 5872 5875 5876 5877 5878 5880
5757 5757 5757 5758 5759 5760 5760 5760 5759 5759 5759 5760 5760 5760 5760 5760 5760 5760 5760 5760 5759 5759 5759 5759 5760 5760 5760 5762 5763 5764 5765 5766 5767 5768 5769 5769 5771 5772 5774 5776 5778 5780 5781 5783 5785 5787 5789 5790 5792 5796 5799 5800 5803 5806 5807 5808 5810 5812 5814 5817 5821 5824 5828 5830 5828 5828 5831 5834 5836 5837 5838 5841 5844 5845 5848 5851 5853 5856 5858 5859 5861 5865 5869 5872 5873 5874 5876 5877
5756 5756 5757 5758 5758 5759 5759 5759 5758 5758 5758 5759 5759 5759 5760 5760 5760 5760 5760 5760 5759 5759 5758 5758 5758 5759 5760 5761 5762 5763 5764 5765 5766 5767 5767 5768 5769 5771 5772 5775 5776 5777 5779 5781 5782 5784 5786 5789 5790 5793 5796 5798 5801 5804 5805 5806 5808 5810 5812 5814 5817 5821 5825 5827 5827 5826 5827 5829 5832 5835 5837 5840 5842 5843 5845 5848 5851 5853 5854 5856 5858 5861 5865 5869 5870 5872 5873 5874